Hourly Data Report for June 17, 2021

TORONTO CITY
ONTARIO
Current Station Operator: ECCC - MSC

43°40'00.000" N
79°24'00.000" W
112.50 m
6158355
71508
XTO

Download Data

Hourly Data (June 2021)
Hourly Data Report for June 17, 2021
TIME
LST
Temp Definition
°C
Dew Point Definition
°C
Rel Hum Definition
%
Precip. Amount Definition
mm

Wind Dir Definition
10's deg

Wind Spd Definition
km/h
Visibility Definition
km
Stn Press Definition
kPa
Hmdx Definition


Wind Chill Definition


Weather Definition


00:00 13.2 2.4 48 0.0       100.26     LegendNANA
01:00 12.3 4.0 57 0.0       100.23     LegendNANA
02:00 12.7 3.9 55 0.0       100.23     LegendNANA
03:00 12.3 4.4 58 0.0       100.22     LegendNANA
04:00 11.7 3.8 58 0.0       100.22     LegendNANA
05:00 11.9 3.5 56 0.0       100.26     LegendNANA
06:00 12.4 5.0 61 0.0       100.30     LegendNANA
07:00 15.8 3.8 45 0.0       100.32     LegendNANA
08:00 18.2 4.1 39 0.0       100.32     LegendNANA
09:00 20.2 5.3 37 0.0       100.34     LegendNANA
10:00 20.2 7.0 43 0.0       100.34     LegendNANA
11:00 21.7 3.5 30 0.0       100.33     LegendNANA
12:00 22.0 5.1 33 0.0       100.30     LegendNANA
13:00 23.3 4.6 30 0.0       100.26     LegendNANA
14:00 23.8 3.8 27 0.0       100.21     LegendNANA
15:00 22.9 4.5 30 0.0       100.16     LegendNANA
16:00 23.4 5.2 31 0.0       100.13     LegendNANA
17:00 22.8 4.0 29 0.0       100.06     LegendNANA
18:00 21.9 7.0 38 0.0       100.00     LegendNANA
19:00 21.0 9.1 46 0.0       99.98     LegendNANA
20:00 20.2 9.7 51 0.0       99.96     LegendNANA
21:00 19.6 10.3 55 0.0       99.99     LegendNANA
22:00 18.8 10.1 57 0.0       99.96     LegendNANA
23:00 18.5 10.3 59 0.0       99.97     LegendNANA

Notes on Data Quality.

Legend

  • E = Estimated
  • M = Missing
  • NA = Not Available*
  • [empty] = Indicates an unobserved value
Date modified: